Location: Kershaw
(34.5481°N, 80.5823°W)
Time: 16:36:18
(UTC+00:00)

Courier 1B Rocket - Pass Details

Date: 01 October 2022
Orbit: 920 x 1202 km, 28.2° (Epoch: 08 December)

Event Time Altitude Azimuth Distance (km) Brightness Sun altitude
Rises 07:29:06 0° 256° (WSW) 3,564 - -45.4°
Reaches altitude 10° 07:34:56 10° 214° (SW) 2,665 - -44.4°
Maximum altitude 07:35:33 10° 209° (SSW) 2,661 - -44.3°
Drops below altitude 10° 07:36:09 10° 203° (SSW) 2,677 - -44.2°
Sets 07:42:12 0° 162° (SSE) 3,703 - -43.2°
